Location: Paris
(18.5000°N, 73.9167°W)
Time: 11:21:16
(UTC+00:00)

H-2A R/B - Pass Details

Date: 18 April 2024
Orbit: 266 x 31756 km, 28.0° (Epoch: 26 May)

Event Time Altitude Azimuth Distance (km) Brightness Sun altitude
Rises 15:03:29 0° 256° (WSW) 13,682 8.1 62.1°
Reaches altitude 10° 15:20:23 10° 246° (WSW) 16,625 8.7 66.0°
Drops below altitude 10° 19:30:31 10° 230° (SW) 36,218 11.1 51.8°
Maximum altitude 23:25:50 52° 165° (SSE) 2,186 4.2 -3.6°
Enters shadow 23:31:59 - 84° (E) 2,760 4.3 -5.1°
